Location: Moscow
(55.7500°N, 37.5830°E)
Time: 15:50:42
(UTC+03:00)

Tiros 1 - All Passes

Search period start: 09 December 2021 00:00
Search period end: 19 December 2021 00:00
Orbit: 630 x 663 km, 48.4° (Epoch: 08 December)

Date Brightness Start Highest point End Pass type
(mag) Time Alt. Az. Time Alt. Az. Time Alt. Az.
09 Dec - 17:18:08 10° SSW 17:21:12 18° SSE 17:24:16 10° ESE visible
09 Dec - 18:58:22 10° SW 19:02:28 31° S 19:06:36 10° ESE visible
09 Dec - 20:39:51 10° WSW 20:43:58 31° S 20:48:06 10° SE visible
09 Dec - 22:22:13 10° WSW 22:25:14 17° SSW 22:28:16 10° S night (unlit)
10 Dec - 17:42:51 10° SW 17:46:37 25° SSE 17:50:25 10° ESE visible
10 Dec - 19:23:52 10° WSW 19:28:04 34° S 19:32:17 10° ESE visible
10 Dec - 21:05:42 10° WSW 21:09:31 25° SSW 21:13:20 10° SE visible
10 Dec - 22:50:00 10° SW 22:50:32 10° SW 22:51:05 10° SSW night (unlit)
11 Dec - 16:27:59 10° S 16:30:54 17° SSE 16:33:51 10° ESE daylight
11 Dec - 18:08:05 10° SW 18:12:09 31° S 18:16:15 10° ESE visible
11 Dec - 19:49:32 10° WSW 19:53:39 31° S 19:57:48 10° SE visible
11 Dec - 21:31:50 10° WSW 21:34:57 18° SSW 21:38:05 10° SSE visible
12 Dec - 16:52:38 10° SSW 16:56:19 24° SSE 17:00:03 10° ESE visible
12 Dec - 18:33:34 10° WSW 18:37:44 34° S 18:41:57 10° ESE visible
12 Dec - 20:15:22 10° WSW 20:19:12 26° SSW 20:23:04 10° SE visible
12 Dec - 21:59:05 10° SW 22:00:16 11° SW 22:01:26 10° SSW night (unlit)
13 Dec - 15:37:50 10° S 15:40:37 16° SSE 15:43:25 10° ESE daylight
13 Dec - 17:17:48 10° SW 17:21:51 30° SSE 17:25:55 10° ESE visible
13 Dec - 18:59:14 10° WSW 19:03:21 32° S 19:07:29 10° SE visible
13 Dec - 20:41:27 10° WSW 20:44:40 18° SSW 20:47:52 10° SSE visible
14 Dec - 16:02:23 10° SSW 16:06:02 23° SSE 16:09:40 10° ESE daylight
14 Dec - 17:43:16 10° WSW 17:47:26 33° S 17:51:37 10° ESE visible
14 Dec - 19:25:01 10° WSW 19:28:53 26° SSW 19:32:48 10° SE visible
14 Dec - 21:08:25 10° WSW 21:09:59 12° SW 21:11:32 10° SSW visible
15 Dec - 14:47:43 10° S 14:50:20 15° SSE 14:52:58 10° ESE daylight
15 Dec - 16:27:32 10° SW 16:31:32 30° SSE 16:35:34 10° ESE daylight
15 Dec - 18:08:54 10° WSW 18:13:02 32° S 18:17:11 10° SE visible
15 Dec - 19:51:04 10° WSW 19:54:22 19° SSW 19:57:40 10° SSE visible
16 Dec - 15:12:10 10° SSW 15:15:44 22° SSE 15:19:18 10° ESE daylight
16 Dec - 16:52:58 10° WSW 16:57:07 33° S 17:01:18 10° ESE visible
16 Dec - 18:34:41 10° WSW 18:38:35 27° SSW 18:42:30 10° SE visible
16 Dec - 20:17:51 10° WSW 20:19:42 12° SW 20:21:33 10° SSW visible
17 Dec - 13:57:36 10° S 14:00:04 14° SSE 14:02:30 10° ESE daylight
17 Dec - 15:37:15 10° SW 15:41:14 29° SSE 15:45:13 10° ESE daylight
17 Dec - 17:18:35 10° WSW 17:22:42 32° S 17:26:52 10° ESE visible
17 Dec - 19:00:42 10° WSW 19:04:03 20° SSW 19:07:26 10° SSE visible
18 Dec - 14:21:56 10° SSW 14:25:26 21° SSE 14:28:55 10° ESE daylight
18 Dec - 16:02:40 10° WSW 16:06:48 33° S 16:10:58 10° ESE daylight
18 Dec - 17:44:21 10° WSW 17:48:17 28° SSW 17:52:13 10° SE visible
18 Dec - 19:27:20 10° WSW 19:29:25 13° SW 19:31:30 10° S visible
